This is the latest recevied weather packets stored in our database for station/object F4JUT-10. If no packets are shown the sender has not sent any weather packets the latest 10 day(s).
| Time | Temp. | Humidity | Pressure | Rain* | Wind** | Luminosity | Snow |
|---|---|---|---|---|---|---|---|
| 1777865574 | 10.56° C | 60% | 1017.2 hPa | - | - | - | - |
| 1777864674 | 11.11° C | 61% | 1017.2 hPa | - | - | - | - |
| 1777863774 | 11.11° C | 59% | 1017.3 hPa | - | - | - | - |
| 1777862873 | 11.67° C | 59% | 1017.3 hPa | - | - | - | - |
| 1777861973 | 11.67° C | 58% | 1017.4 hPa | - | - | - | - |
| 1777861073 | 11.67° C | 55% | 1017.5 hPa | - | - | - | - |
| 1777860173 | 11.67° C | 55% | 1017.4 hPa | - | - | - | - |
| 1777859273 | 11.67° C | 54% | 1017.4 hPa | - | - | - | - |
| 1777858373 | 11.67° C | 55% | 1017.4 hPa | - | - | - | - |
| 1777857473 | 12.22° C | 55% | 1017.4 hPa | - | - | - | - |
| 1777856573 | 12.22° C | 54% | 1017.5 hPa | - | - | - | - |
| 1777855673 | 11.67° C | 53% | 1017.6 hPa | - | - | - | - |
| 1777854773 | 11.67° C | 52% | 1017.6 hPa | - | - | - | - |
| 1777853872 | 11.67° C | 52% | 1017.7 hPa | - | - | - | - |
| 1777852972 | 11.67° C | 52% | 1017.7 hPa | - | - | - | - |
| 1777852072 | 11.67° C | 52% | 1018 hPa | - | - | - | - |
| 1777851172 | 12.22° C | 53% | 1017.9 hPa | - | - | - | - |
| 1777850271 | 12.22° C | 52% | 1018.2 hPa | - | - | - | - |
| 1777849371 | 12.22° C | 51% | 1018.3 hPa | - | - | - | - |
| 1777848470 | 12.22° C | 51% | 1018.4 hPa | - | - | - | - |
| 1777847570 | 12.78° C | 50% | 1018.3 hPa | - | - | - | - |
| 1777846670 | 12.78° C | 49% | 1018.4 hPa | - | - | - | - |
| 1777845770 | 12.78° C | 49% | 1018.4 hPa | - | - | - | - |
| 1777844870 | 12.78° C | 50% | 1018.3 hPa | - | - | - | - |
| 1777843969 | 12.78° C | 49% | 1018.2 hPa | - | - | - | - |
* Rain since midnight (hover to see other rain measurements)
** Current wind speed in m/s (hover to see current wind gust speed)